[Date Prev][Date Next][Thread Prev][Thread Next] - [Date Index][Thread Index][Author Index]
2 Line ISS Keps 3-12
- Subject: [sarex] 2 Line ISS Keps 3-12
- From: "Dave Larsen PhD" <doc@xxxxxxxxxxx>
- Date: Fri, 12 Mar 2004 00:50:55 -0800
ISS
1 25544U 98067A 04072.17043317 .00020643 00000-0 19679-3 0 3577
2 25544 51.6279 99.8697 0010665 266.8885 165.6318 15.66695031303098
----
Via the sarex mailing list at AMSAT.ORG courtesy of AMSAT-NA.
To unsubscribe, send "unsubscribe sarex" to Majordomo@amsat.org
AMSAT Home